Weather reports worldwide

Advertisment
Annecy-Meythet, France (7490): temperature & dewpoint: 18.03.2019 17:00:00 - 24.03.2019 17:00:00 (CET)Annecy-Meythet, France (7490): temperature 5cm: 18.03.2019 17:00:00 - 24.03.2019 17:00:00 (CET)Annecy-Meythet, France (7490): temperature -20cm & temperature -100cm: 18.03.2019 17:00:00 - 24.03.2019 17:00:00 (CET)Annecy-Meythet, France (7490): wind speed & gusts: 18.03.2019 17:00:00 - 24.03.2019 17:00:00 (CET)Annecy-Meythet, France (7490): wind direction: 18.03.2019 17:00:00 - 24.03.2019 17:00:00 (CET)Annecy-Meythet, France (7490): reduced air pressure: 18.03.2019 17:00:00 - 24.03.2019 17:00:00 (CET)Annecy-Meythet, France (7490): visibility: 18.03.2019 17:00:00 - 24.03.2019 17:00:00 (CET)Annecy-Meythet, France (7490): precipitation: 18.03.2019 17:00:00 - 24.03.2019 17:00:00 (CET)
Date & Time tt [°C] td [°C] tt 5cm [°C] tt -20cm [°C] tt -100cm [°C] ff [km/h] ff [kn] fx [km/h] fx [kn] dd ppp [hPa] vv [km] rr [mm]
24.03.2019 17:00:00 19,3 3,4 20,8 11,1 7,0 15 8 23 12 WSW 1019,8 31 0,0
24.03.2019 16:00:00 19,8 2,2 22,6 10,7 7,0 12 6 25 14 SW 1020,1 39 0,0
24.03.2019 15:00:00 19,7 2,5 22,9 10,1 7,0 14 8 23 13 WSW 1020,6 47 0,0
24.03.2019 14:00:00 19,3 3,0 22,7 9,3 7,0 6 4 27 14 WNW 1021,2 20 0,0
24.03.2019 13:00:00 17,9 2,2 21,8 8,5 7,0 12 7 24 13 S 1022,1 20 0,0
24.03.2019 12:00:00 16,8 2,8 20,9 7,6 7,0 7 4 13 7 SSE 1023,1 39 0,0
24.03.2019 11:00:00 15,8 2,9 19,4 6,9 7,0 2 1 7 4 SSE 1023,8 41 0,0
24.03.2019 10:00:00 13,2 1,8 15,0 6,4 7,0 2 1 6 3 ESE 1024,9 45 0,0
24.03.2019 09:00:00 9,1 1,5 10,3 6,2 7,0 0 0 7 4 N 1026,2 48 0,0
24.03.2019 08:00:00 6,0 0,5 0,6 6,3 7,0 2 1 13 7 E 1026,9 56 0,0
24.03.2019 07:00:00 1,4 -0,5 -0,8 6,6 7,0 10 6 14 8 ENE 1027,6 56 0,0
24.03.2019 06:00:00 2,0 -0,9 -0,8 6,8 7,0 6 3 10 5 NNE 1027,2 40 0,0
24.03.2019 05:00:00 1,7 -1,0 -0,5 7,1 7,0 5 3 17 9 NE 1027,1 42 0,0
24.03.2019 04:00:00 3,1 -0,4 0,6 7,4 7,0 10 6 17 9 ENE 1026,5 43 0,0
24.03.2019 03:00:00 4,1 -0,3 0,6 7,7 7,0 6 3 13 7 NE 1026,3 35 0,0
24.03.2019 02:00:00 4,2 0,2 2,4 8,0 7,0 9 5 15 8 NNE 1026,3 36 0,0
24.03.2019 01:00:00 4,6 0,7 2,8 8,4 7,0 14 7 16 9 ENE 1026,4 38 0,0
24.03.2019 00:00:00 5,9 0,6 3,3 8,7 7,0 10 6 16 8 NNE 1026,5 36 0,0
23.03.2019 23:00:00 7,1 0,5 3,5 9,1 7,0 8 5 14 8 NNE 1026,4 35 0,0
23.03.2019 22:00:00 7,5 1,1 4,1 9,5 7,0 8 5 11 6 NNE 1026,3 40 0,0
23.03.2019 21:00:00 11,5 -0,3 5,4 9,8 7,0 4 2 14 8 NE 1025,4 39 0,0
23.03.2019 20:00:00 14,1 -1,2 6,8 10,1 7,0 7 4 12 6 NNE 1024,3 54 0,0
23.03.2019 19:00:00 16,2 -1,4 11,1 10,3 7,0 7 4 16 9 NW 1023,6 60 0,0
23.03.2019 18:00:00 18,3 -0,1 19,1 10,4 6,9 12 7 23 12 NNW 1023,0 20 0,0
23.03.2019 17:00:00 19,7 -0,4 21,5 10,2 6,9 15 8 32 17 NW 1022,7 60 0,0
23.03.2019 16:00:00 19,9 -0,2 22,3 9,9 6,9 18 10 32 17 NW 1022,8 48 0,0
23.03.2019 15:00:00 19,9 -1,3 22,4 9,5 6,9 18 10 31 17 NW 1023,3 40 0,0
23.03.2019 14:00:00 19,3 1,3 21,5 8,8 6,9 19 11 32 17 NW 1023,7 39 0,0
23.03.2019 13:00:00 18,4 0,9 20,9 7,9 6,9 13 7 22 12 W 1024,8 37 0,0
23.03.2019 12:00:00 16,5 1,0 20,2 7,1 6,9 9 5 21 11 WNW 1026,0 19 0,0
23.03.2019 11:00:00 15,0 0,8 17,8 6,3 6,9 3 2 9 5 S 1026,9 20 0,0
23.03.2019 10:00:00 11,9 1,2 14,6 5,8 6,9 0 0 9 5 N 1028,2 52 0,0
23.03.2019 09:00:00 8,4 0,8 9,5 5,7 6,9 2 1 7 4 ESE 1029,1 45 0,0
23.03.2019 08:00:00 4,5 -0,1 -0,5 5,8 6,9 2 1 15 8 NE 1029,9 48 0,0
23.03.2019 07:00:00 0,9 -2,0 -1,2 6,1 6,9 7 4 13 7 NNE 1030,6 53 0,0
23.03.2019 06:00:00 1,3 -1,9 -1,3 6,4 6,9 7 4 11 6 NE 1030,3 54 0,0
23.03.2019 05:00:00 1,5 -1,6 -1,1 6,7 6,9 8 4 12 7 ENE 1030,3 54 0,0
23.03.2019 04:00:00 2,3 -1,3 0,0 7,0 6,9 8 5 14 7 NNE 1030,2 46 0,0
23.03.2019 03:00:00 2,3 -0,8 0,9 7,3 6,9 10 5 15 8 ENE 1030,2 22 0,0
23.03.2019 02:00:00 3,6 -0,1 0,6 7,6 6,9 9 5 11 6 NE 1030,1 20 0,0
23.03.2019 01:00:00 4,8 0,0 1,8 7,9 6,9 6 3 12 7 NNE 1030,0 19 0,0
23.03.2019 00:00:00 5,0 0,4 2,1 8,3 6,9 8 4 11 6 ENE 1029,8 25 0,0
22.03.2019 23:00:00 6,8 0,5 3,1 8,7 6,9 7 4 12 7 NNE 1029,5 22 0,0
22.03.2019 22:00:00 8,2 0,7 3,9 9,1 6,9 4 2 13 7 N 1028,9 20 0,0
22.03.2019 21:00:00 9,4 1,3 5,5 9,5 6,9 9 5 11 6 ENE 1028,0 35 0,0
22.03.2019 20:00:00 11,6 0,7 7,1 9,8 6,9 7 4 15 8 ENE 1027,0 34 0,0
22.03.2019 19:00:00 16,0 1,7 13,0 10,0 6,9 11 6 19 10 NW 1025,9 11 0,0
22.03.2019 18:00:00 19,1 -0,4 19,6 10,0 6,9 13 7 22 12 NW 1025,1 38 0,0
22.03.2019 17:00:00 20,3 0,1 22,5 9,8 6,9 11 6 24 13 NNW 1025,1 19 0,0
22.03.2019 16:00:00 20,5 -2,0 23,2 9,3 6,9 13 7 24 13 NW 1025,5 35 0,0
22.03.2019 15:00:00 19,4 3,1 23,0 8,6 6,9 10 5 18 10 W 1026,2 20 0,0
22.03.2019 14:00:00 18,5 1,9 22,9 7,7 6,9 7 4 14 7 SSW 1026,9 19 0,0
22.03.2019 13:00:00 16,6 -1,5 20,7 6,7 6,9 5 3 13 7 W 1028,1 35 0,0
22.03.2019 12:00:00 14,5 1,7 18,2 5,8 6,9 4 2 9 5 SE 1029,1 28 0,0
22.03.2019 11:00:00 12,2 0,3 15,7 5,1 6,9 3 2 9 5 ESE 1030,2 20 0,0
22.03.2019 10:00:00 9,7 -0,2 11,8 4,6 6,9 0 0 6 3 N 1031,1 44 0,0
22.03.2019 09:00:00 6,1 0,0 6,9 4,5 6,9 0 0 6 3 N 1032,0 33 0,0
22.03.2019 08:00:00 2,0 -1,1 -1,6 4,7 6,9 2 1 11 6 NNE 1033,0 13 0,0
22.03.2019 07:00:00 -0,4 -2,5 -2,6 4,9 6,9 7 4 13 7 ENE 1033,3 16 0,0
22.03.2019 06:00:00 -0,7 -2,6 -2,1 5,1 6,9 5 3 12 7 NE 1032,9 12 0,0
22.03.2019 05:00:00 -0,2 -2,1 -2,1 5,4 6,9 6 4 13 7 NNE 1032,5 14 0,0
22.03.2019 04:00:00 0,3 -1,6 -1,7 5,6 6,9 11 6 14 8 NE 1032,4 14 0,0
22.03.2019 03:00:00 0,9 -1,5 -1,3 6,0 6,9 9 5 17 9 NE 1032,6 14 0,0
22.03.2019 02:00:00 1,0 -1,6 -1,1 6,2 6,9 5 3 12 7 ENE 1032,6 14 0,0
22.03.2019 01:00:00 2,6 -1,0 -0,3 6,6 6,9 5 3 11 6 NE 1032,2 16 0,0
22.03.2019 00:00:00 2,9 -0,7 0,4 6,9 6,9 8 4 13 7 NNE 1032,0 14 0,0
21.03.2019 23:00:00 4,4 -0,6 0,3 7,2 6,9 6 3 9 5 NNE 1031,5 17 0,0
21.03.2019 22:00:00 5,5 -0,4 1,3 7,6 6,9 2 1 9 5 NE 1031,0 18 0,0
21.03.2019 21:00:00 6,8 -0,7 2,6 7,9 6,9 6 3 12 6 N 1030,3 20 0,0
21.03.2019 20:00:00 8,9 -1,3 4,1 8,2 6,9 5 3 10 6 NNW 1029,7 27 0,0
21.03.2019 19:00:00 10,6 -1,8 8,7 8,5 6,9 9 5 22 12 NNW 1028,9 34 0,0
21.03.2019 18:00:00 12,7 -0,9 12,9 8,5 6,9 15 8 27 14 NW 1027,9 29 0,0
21.03.2019 17:00:00 13,5 -0,2 15,5 8,4 6,9 17 9 34 18 NW 1027,4 31 0,0
21.03.2019 16:00:00 13,7 -0,7 16,1 8,0 6,9 19 11 30 16 NW 1027,4 20 0,0
21.03.2019 15:00:00 14,5 0,0 17,7 7,4 6,9 8 4 28 15 NNE 1027,3 36 0,0
21.03.2019 14:00:00 13,2 0,2 15,1 6,7 6,9 11 6 29 16 NW 1028,0 20 0,0
21.03.2019 13:00:00 11,5 0,0 15,0 6,0 6,9 19 10 31 17 W 1028,9 19 0,0
21.03.2019 12:00:00 10,6 0,9 14,4 5,1 6,9 12 7 22 12 WNW 1029,4 20 0,0
21.03.2019 11:00:00 8,9 -0,2 12,9 4,5 6,9 5 3 11 6 SW 1030,2 23 0,0
21.03.2019 10:00:00 7,2 -0,5 8,9 4,0 6,9 2 1 9 5 ESE 1031,2 20 0,0
21.03.2019 09:00:00 3,7 -0,7 6,5 4,0 6,9 3 2 8 5 WSW 1032,2 20 0,0
21.03.2019 08:00:00 1,6 -1,8 -2,9 4,1 6,9 4 2 5 3 NE 1032,7 13 0,0
21.03.2019 07:00:00 -1,4 -3,4 -3,7 4,4 6,9 2 1 8 4 NNW 1033,0 16 0,0
21.03.2019 06:00:00 -1,6 -3,5 -3,5 4,5 6,9 4 2 6 3 N 1032,7 18 0,0
21.03.2019 05:00:00 -1,2 -3,1 -3,5 4,8 6,9 4 2 8 5 NNE 1032,4 18 0,0
21.03.2019 04:00:00 -0,7 -3,2 -2,9 5,0 6,9 3 2 8 5 NE 1031,9 20 0,0
21.03.2019 03:00:00 -0,4 -2,9 -2,5 5,3 6,9 5 3 10 5 NNE 1032,1 17 0,0
21.03.2019 02:00:00 0,5 -2,7 -2,0 5,6 6,9 7 4 11 6 NE 1032,3 23 0,0
21.03.2019 01:00:00 0,7 -2,5 -1,8 5,9 6,9 4 2 11 6 NNE 1032,2 22 0,0
21.03.2019 00:00:00 2,9 -2,4 -1,3 6,2 6,9 3 2 6 4 ENE 1031,3 27 0,0
20.03.2019 23:00:00 3,8 -2,6 -0,4 6,5 6,9 3 1 14 8 ESE 1031,0 28 0,0
20.03.2019 22:00:00 5,0 -2,1 1,5 6,8 6,9 12 7 16 9 NE 1030,8 40 0,0
20.03.2019 21:00:00 6,8 -3,2 3,9 7,2 6,9 8 5 26 14 NNE 1030,3 40 0,0
20.03.2019 20:00:00 7,9 -3,3 5,7 7,5 6,9 10 5 33 18 NNE 1029,8 47 0,0
20.03.2019 19:00:00 9,2 -2,7 7,8 7,7 6,9 19 11 34 18 N 1029,1 47 0,0
20.03.2019 18:00:00 10,8 -2,6 11,9 7,8 6,9 20 11 31 17 NNE 1028,6 40 0,0
20.03.2019 17:00:00 11,6 -0,9 14,3 7,6 6,9 16 9 30 16 NE 1028,1 54 0,0
20.03.2019 16:00:00 12,2 -1,4 15,7 7,2 6,9 9 5 20 11 N 1028,1 20 0,0
20.03.2019 15:00:00 11,7 -3,7 15,9 6,6 6,9 7 4 26 14 NE 1028,5 45 0,0
20.03.2019 14:00:00 11,1 -0,4 15,2 6,0 6,9 14 7 25 14 NNE 1028,9 60 0,0
20.03.2019 13:00:00 10,3 -1,8 14,0 5,4 6,9 13 7 29 15 NNE 1029,5 27 0,0
20.03.2019 12:00:00 9,1 -2,2 12,5 4,7 6,9 19 10 29 16 ENE 1029,8 56 0,0
20.03.2019 11:00:00 7,9 -1,9 11,8 4,1 6,9 16 9 30 16 ENE 1030,1 42 0,0
20.03.2019 10:00:00 7,0 -1,4 8,7 3,8 6,9 3 2 8 4 N 1030,3 35 0,0
20.03.2019 09:00:00 3,6 -1,4 5,1 3,8 6,9 4 2 6 4 SSW 1031,3 32 0,0
20.03.2019 08:00:00 1,3 -2,1 -3,3 3,9 6,9 2 1 8 4 NNE 1031,6 22 0,0
20.03.2019 07:00:00 -1,6 -3,5 -3,9 4,1 6,9 4 2 7 4 N 1031,9 24 0,0
20.03.2019 06:00:00 -1,4 -3,6 -3,7 4,3 6,9 4 2 10 5 N 1031,2 32 0,0
20.03.2019 05:00:00 -1,3 -3,3 -3,7 4,5 6,9 4 2 8 4 NNE 1031,2 36 0,0
20.03.2019 04:00:00 -0,8 -3,2 -3,2 4,7 6,9 4 2 9 5 NNE 1030,7 34 0,0
20.03.2019 03:00:00 -0,5 -2,9 -2,4 4,9 6,9 8 5 13 7 NNE 1030,7 34 0,0
20.03.2019 02:00:00 1,0 -2,8 -1,7 5,2 6,9 6 3 11 6 NNW 1030,3 41 0,0
20.03.2019 01:00:00 3,5 -2,9 -1,2 5,5 6,9 6 4 16 9 N 1029,6 48 0,0
20.03.2019 00:00:00 2,2 -2,9 -1,2 5,8 6,9 4 2 17 9 SSE 1029,5 59 0,0
19.03.2019 23:00:00 4,2 -2,9 1,4 6,0 6,9 10 5 21 11 NNE 1028,7 59 0,0
19.03.2019 22:00:00 4,6 -3,0 1,8 6,3 6,9 8 5 19 11 NE 1028,1 60 0,0
19.03.2019 21:00:00 5,5 -3,1 3,9 6,6 6,9 13 7 29 16 NNE 1027,5 60 0,0
19.03.2019 20:00:00 6,5 -3,7 5,1 7,0 6,8 20 11 41 22 NNE 1027,0 60 0,0
19.03.2019 19:00:00 7,1 -3,5 5,8 7,3 6,9 24 13 46 25 NNE 1026,4 60 0,0
19.03.2019 18:00:00 8,6 -3,0 9,6 7,4 6,9 25 14 48 26 NNE 1025,6 26 0,0
19.03.2019 17:00:00 9,4 -2,3 11,0 7,4 6,8 31 17 46 25 NNE 1024,6 39 0,0
19.03.2019 16:00:00 9,9 -2,1 13,4 7,2 6,9 26 14 40 22 N 1024,5 29 0,0
19.03.2019 15:00:00 10,0 -0,2 13,9 6,8 6,8 21 12 37 20 NNE 1024,5 31 0,0
19.03.2019 14:00:00 9,6 -1,2 13,1 6,4 6,9 22 12 39 21 NNE 1024,5 40 0,0
19.03.2019 13:00:00 9,0 -1,7 12,7 5,9 6,8 21 11 39 21 N 1024,8 34 0,0
19.03.2019 12:00:00 8,2 -1,1 8,6 5,4 6,8 21 11 37 20 N 1025,1 4,2 0,0
19.03.2019 11:00:00 7,6 -0,4 11,8 4,8 6,8 18 10 29 16 NE 1025,2 37 0,0
19.03.2019 10:00:00 6,6 0,3 8,3 4,5 6,8 3 1 9 5 E 1025,5 34 0,0
19.03.2019 09:00:00 4,2 -0,4 6,1 4,4 6,8 2 1 5 3 SSE 1025,9 35 0,0
19.03.2019 08:00:00 1,8 -1,1 -2,7 4,6 6,8 0 0 8 4 N 1026,2 20 0,0
19.03.2019 07:00:00 -1,1 -2,1 -3,4 4,8 6,8 4 2 8 4 ENE 1026,1 33 0,0
19.03.2019 06:00:00 -1,6 -2,6 -3,3 5,0 6,8 2 1 5 3 NNE 1025,8 35 0,0
19.03.2019 05:00:00 -1,1 -2,4 -2,6 5,2 6,8 3 2 8 4 N 1025,3 39 0,0
19.03.2019 04:00:00 -0,7 -2,0 -2,5 5,5 6,8 3 2 7 4 NNE 1025,1 40 0,0
19.03.2019 03:00:00 -0,1 -1,8 -1,9 5,8 6,8 5 3 8 5 NE 1024,8 24 0,0
19.03.2019 02:00:00 0,6 -1,0 -0,8 6,0 6,8 2 1 9 5 ENE 1024,7 30 0,0
19.03.2019 01:00:00 1,6 -0,7 -0,4 6,3 6,8 5 3 7 4 S 1024,7 33 0,0
19.03.2019 00:00:00 2,4 -0,5 0,4 6,5 6,8 6 4 10 5 NW 1024,8 45 0,0
18.03.2019 23:00:00 2,8 -0,7 0,8 6,8 6,8 6 4 13 7 NNW 1024,9 46 0,0
18.03.2019 22:00:00 4,0 -0,6 1,4 7,1 6,8 7 4 11 6 NW 1024,8 60 0,0
18.03.2019 21:00:00 3,5 0,0 1,5 7,4 6,8 3 2 9 5 W 1024,7 60 0,0
18.03.2019 20:00:00 5,1 -0,1 3,6 7,6 6,8 6 3 9 5 NE 1024,2 60 0,0
18.03.2019 19:00:00 6,3 -0,7 5,2 7,8 6,8 8 4 19 10 N 1023,4 60 0,0
18.03.2019 18:00:00 6,9 -0,3 6,7 7,9 6,7 12 6 22 12 N 1022,8 60 0,0
18.03.2019 17:00:00 6,9 -0,3 7,0 7,9 6,8 12 7 29 16 NNW 1022,5 60 0,0

tt = temperature
td = dewpoint
tt 5cm = temperature 5cm
tt -20cm = temperature -20cm
tt -100cm = temperature -100cm
ff = wind speed
fx = gusts
dd = wind direction
ppp = reduced air pressure
vv = visibility
rr = precipitation

Next stations